CAPE
6 5 2 3 1 1 2 1 2 3 3 2 1 1 1 1 0 0 0 0 0 0 0 0 0 0 0 0 209 407 529 346 194 106 71 45 82 47 33 446 411 672 455 751 572
2 3 2 1 1 1 1 1 1 1 3 3 2 1 1 0 0 0 0 0 0 0 0 0 0 0 0 8 136 180 143 156 231 196 129 139 85 292 151 210 540 944 809 808 640
2 2 2 2 1 1 2 1 1 4 3 2 1 1 0 0 0 0 0 0 0 0 0 0 0 0 1 32 152 11 274 337 237 40 88 83 83 323 79 351 490 1208 788 776 609
2 2 2 5 4 2 1 1 3 4 2 2 1 0 0 0 0 0 0 3 7 0 0 0 0 0 7 21 52 72 22 88 17 85 106 297 150 101 79 172 691 1499 922 794 696
3 3 6 4 3 5 4 3 2 2 1 1 2 0 0 0 0 0 1 133 0 0 0 0 0 5 7 19 17 52 0 3 3 11 235 199 406 189 260 334 1253 1471 1236 966 852
9 9 8 6 2 4 3 1 0 1 1 1 1 0 0 0 0 0 0 0 0 0 0 0 0 4 1 21 29 23 0 1 0 0 31 19 225 354 24 383 1107 1485 1312 1101 947
6 10 7 4 1 1 0 0 0 0 0 1 0 0 0 0 0 0 0 0 0 0 0 0 0 0 12 24 4 1 0 0 9 10 16 23 124 22 413 338 779 1136 1270 1314 1296
3 7 7 1 0 0 0 0 0 0 1 0 0 0 0 0 0 0 0 0 0 0 0 0 0 0 0 12 0 0 0 32 5 0 0 14 163 113 0 103 597 817 1084 1136 1142
7 8 4 2 0 0 0 0 0 0 0 0 0 0 0 0 0 0 0 0 0 0 0 0 0 0 0 0 0 0 9 39 26 0 6 123 96 5 2 225 770 882 1206 1159 1593
10 7 4 2 0 0 0 0 0 0 0 0 0 0 0 0 0 0 0 0 0 0 0 0 0 0 0 0 2 12 14 65 60 14 4 4 87 271 51 252 939 1291 1137 1559 1774
9 8 3 1 0 0 0 0 0 0 0 0 0 0 0 0 0 0 0 0 0 0 0 0 0 0 1 0 0 64 95 115 77 158 47 30 19 270 167 13 347 591 833 1901 1785
11 8 4 0 0 0 0 0 0 0 0 0 0 0 0 0 0 0 0 0 0 0 0 0 0 0 5 19 10 54 5 3 44 25 0 0 36 249 142 270 294 520 755 1671 1804
11 8 1 0 0 0 0 0 0 0 0 0 0 0 0 0 0 0 0 0 0 0 0 0 0 0 2 35 0 0 5 59 129 67 78 0 20 255 124 59 162 96 136 603 1242
11 10 3 0 0 0 0 0 0 0 0 0 0 0 0 0 0 0 0 0 0 0 0 0 0 0 0 17 0 1 0 29 1 0 2 53 138 362 178 40 266 170 23 345 1081
10 9 5 3 0 0 0 0 0 0 0 0 0 0 0 0 0 0 0 0 0 0 0 0 0 0 0 31 0 0 30 16 4 0 8 26 75 290 122 89 67 16 104 129 283
10 7 5 0 0 0 0 0 0 0 0 0 0 0 0 0 0 0 0 0 0 0 0 0 0 0 0 3 0 0 0 2 0 0 19 69 201 230 190 235 64 13 47 309 741
5 1 10 0 0 0 0 0 0 0 0 0 0 0 0 0 0 0 0 0 0 0 0 0 0 0 0 0 0 0 3 4 6 13 74 18 67 21 81 419 298 17 5 661 990
0 0 0 0 0 0 0 0 0 0 0 0 0 0 0 0 0 0 0 0 0 0 0 0 0 0 0 0 0 0 0 0 150 18 28 86 24 21 53 4 0 0 0 984 1159
0 0 0 0 0 0 0 1 0 2 1 18 0 0 0 0 0 0 0 0 0 0 0 0 0 0 0 0 0 0 0 0 0 0 91 265 54 0 8 36 17 37 75 102 1137
0 0 1 0 0 0 49 0 21 58 84 89 5 0 0 0 0 0 0 0 0 0 0 0 0 0 0 0 0 0 0 0 0 66 55 147 75 224 296 122 8 6 0 291 1203
0 145 0 0 0 15 56 91 89 89 11 1 33 17 0 0 0 0 0 0 0 0 0 0 0 0 0 0 0 0 0 0 36 75 235 291 126 0 729 30 3 0 86 242 1230
2 216 0 0 6 57 85 100 39 121 0 0 0 0 5 0 0 0 0 0 0 0 0 0 0 0 0 0 0 0 0 0 36 112 114 84 180 61 280 12 10 14 329 724 1688
56 90 0 0 77 159 138 132 54 10 1 0 0 0 56 14 0 0 0 0 0 0 0 0 0 0 0 0 0 0 0 0 0 5 303 108 183 7 170 38 190 405 708 1310 1938
60 110 0 0 42 299 415 221 29 0 7 50 31 63 13 54 0 0 0 0 0 0 14 0 0 0 0 0 1 0 0 0 0 145 83 107 264 151 117 61 50 124 681 1180 1978
140 159 203 4 17 221 254 303 177 29 0 0 0 11 48 132 13 20 0 0 0 0 0 0 0 0 0 0 0 0 0 0 0 0 13 19 49 296 159 157 420 367 997 1517 1789
186 348 377 277 328 492 26 112 107 10 42 0 0 58 150 172 498 174 70 11 2 0 0 0 0 0 0 0 0 0 0 0 0 0 0 0 0 32 36 6 544 785 875 1398 2102
0 0 130 285 553 432 230 234 248 27 21 125 411 316 313 744 247 449 512 160 130 2 0 0 0 0 0 0 0 0 0 0 0 0 0 4 22 261 57 135 214 545 1328 1529 2211
CIN
-0 -0 -0 -0 -0 -0 -0 -0 -0 -0 -0 -0 -0 -0 -0 -0 -0 -0 -0 -0 -0 -0 -0 -0 -0 -0 -0 -0 -4 -101 -43 -42 -40 -64 -7 -43 -4 -27 -35 -2 -8 -34 -44 -61 -92
-0 -0 -0 -0 -0 -0 -0 -0 -0 -0 -0 -0 -0 -0 -0 -0 -0 -0 -0 -0 -0 -0 -0 -0 -0 -0 -0 -2 -67 -288 -238 -121 -15 -6 -4 -26 -32 -6 -15 -2 -5 -29 -26 -80 -101
-0 -0 -0 -0 -0 -0 -0 -0 -0 -0 -0 -0 -0 -0 -0 -0 -0 -0 -0 -0 -0 -0 -0 -0 -0 -0 -0 -1 -107 -290 -198 -68 -2 -66 -60 -50 -44 -12 -84 -6 -1 -29 -39 -71 -77
-0 -0 -0 -0 -0 -0 -0 -0 -0 -0 -0 -0 -0 -0 -0 -0 -0 -0 -0 -82 -77 -0 -0 -0 -0 -0 -9 -1 -0 -4 -2 -10 -47 -19 -51 -8 -36 -39 -84 -18 -0 -38 -53 -42 -32
-0 -0 -0 -0 -0 -0 -0 -0 -0 -0 -0 -0 -0 -0 -0 -0 -0 -0 -361 -429 -0 -0 -0 -0 -0 -2 -6 -2 -1 -2 -0 -2 -29 -23 -0 -4 -1 -34 -52 -5 -2 -29 -36 -31 -17
-0 -0 -0 -0 -0 -0 -0 -0 -0 -0 -0 -0 -0 -0 -0 -0 -0 -0 -0 -0 -0 -0 -0 -0 -0 -1 -2 -0 -2 -1 -0 -0 -0 -0 -32 -3 -2 -13 -81 -3 -2 -1 -2 -4 -23
-0 -0 -0 -0 -0 -0 -0 -0 -0 -0 -0 -0 -0 -0 -0 -0 -0 -0 -0 -0 -0 -0 -0 -0 -0 -0 -1 -2 -0 -0 -0 -0 -1 -0 -3 -4 -7 -186 -301 -341 -0 -0 -0 -1 -4
-0 -0 -0 -0 -0 -0 -0 -0 -0 -0 -0 -0 -0 -0 -0 -0 -0 -0 -0 -0 -0 -0 -0 -0 -0 -0 -0 -1 -0 -0 -0 -0 -2 -0 -0 -8 -162 -344 -75 -275 -11 -2 -3 -1 -0
-0 -0 -0 -0 -0 -0 -0 -0 -0 -0 -0 -0 -0 -0 -0 -0 -0 -0 -0 -0 -0 -0 -0 -0 -0 -0 -0 -0 -0 -0 -0 -2 -16 -0 -1 -4 -240 -206 -45 -240 -6 -9 -1 -0 -1
-1 -1 -0 -1 -0 -0 -0 -0 -0 -0 -0 -0 -0 -0 -0 -0 -0 -0 -0 -0 -0 -0 -0 -0 -0 -0 -0 -0 -0 -4 -2 -2 -10 -7 -6 -0 -1 -191 -202 -49 -22 -44 -16 -10 -2
-0 -1 -1 -1 -0 -0 -0 -0 -0 -0 -0 -0 -0 -0 -0 -0 -0 -0 -0 -0 -0 -0 -0 -0 -0 -0 -0 -0 -0 -8 -4 -4 -13 -16 -19 -47 -1 -9 -110 -428 -11 -2 -16 -9 -20
-1 -1 -2 -0 -0 -0 -0 -0 -0 -0 -0 -0 -0 -0 -0 -0 -0 -0 -0 -0 -0 -0 -0 -0 -0 -0 -1 -3 -1 -10 -2 -18 -4 -14 -0 -0 -20 -4 -8 -48 -3 -2 -7 -10 -21
-1 -1 -2 -0 -0 -0 -0 -0 -0 -0 -0 -0 -0 -0 -0 -0 -0 -0 -0 -0 -0 -0 -0 -0 -0 -0 -0 -37 -0 -0 -0 -12 -5 -37 -7 -0 -10 -117 -182 -258 -41 -18 -14 -2 -10
-1 -1 -3 -0 -0 -0 -0 -0 -0 -0 -0 -0 -0 -0 -0 -0 -0 -0 -0 -0 -0 -0 -0 -0 -0 -0 -0 -56 -0 -0 -0 -12 -4 -0 -1 -7 -7 -160 -262 -161 -58 -52 -488 -109 -1
-1 -2 -5 -5 -0 -0 -0 -0 -0 -0 -0 -0 -0 -0 -0 -0 -0 -0 -0 -0 -0 -0 -0 -0 -0 -0 -0 -40 -0 -0 -23 -67 -28 -0 -66 -21 -4 -95 -263 -139 -130 -407 -367 -266 -393
-2 -3 -1 -0 -0 -0 -0 -0 -0 -0 -0 -0 -0 -0 -0 -0 -0 -0 -0 -0 -0 -0 -0 -0 -0 -0 -0 -1 -0 -0 -6 -38 -0 -0 -67 -51 -30 -22 -69 -206 -99 -334 -326 -8 -1
-4 -5 -0 -0 -0 -0 -0 -0 -0 -0 -0 -0 -0 -0 -0 -0 -0 -0 -0 -0 -0 -0 -0 -0 -0 -0 -0 -0 -0 -0 -90 -96 -23 -56 -51 -64 -234 -94 -120 -42 -66 -59 -19 -5 -5
-0 -0 -0 -0 -0 -0 -0 -0 -0 -0 -0 -0 -0 -0 -0 -0 -0 -0 -0 -0 -0 -0 -0 -0 -0 -0 -0 -0 -0 -0 -0 -0 -10 -91 -219 -205 -94 -124 -5 -3 -0 -0 -0 -7 -6
-0 -0 -0 -0 -0 -0 -0 -28 -0 -27 -0 -0 -0 -0 -0 -0 -0 -0 -0 -0 -0 -0 -0 -0 -0 -0 -0 -0 -0 -0 -0 -0 -0 -0 -0 -68 -21 -0 -53 -9 -64 -14 -17 -4 -5
-0 -44 -159 -0 -0 -0 -251 -0 -73 -8 -19 -0 -0 -0 -0 -0 -0 -0 -0 -0 -0 -0 -0 -0 -0 -0 -0 -0 -0 -0 -0 -0 -0 -14 -12 -37 -114 -81 -137 -32 -62 -47 -0 -3 -7
-0 -63 -25 -0 -0 -282 -217 -110 -50 -24 -18 -1 -1 -1 -0 -0 -0 -0 -0 -0 -0 -0 -0 -0 -0 -0 -0 -0 -0 -0 -0 -0 -1 -0 -1 -23 -198 -0 -40 -12 -10 -0 -10 -5 -2
-18 -8 -0 -0 -193 -152 -131 -78 -78 -2 -0 -0 -0 -0 -0 -0 -0 -0 -0 -0 -0 -0 -0 -0 -0 -0 -0 -0 -0 -0 -0 -0 -4 -13 -5 -5 -9 -186 -64 -16 -29 -37 -2 -3 -7
-102 -34 -0 -0 -63 -37 -59 -48 -84 -23 -0 -0 -0 -0 -1 -1 -0 -0 -0 -0 -0 -0 -0 -0 -0 -0 -0 -0 -0 -0 -0 -0 -0 -0 -1 -1 -17 -11 -148 -149 -0 -4 -1 -17 -17
-88 -19 -0 -0 -110 -19 -4 -4 -39 -0 -2 -2 -5 -1 -12 -1 -0 -0 -0 -0 -0 -0 -110 -0 -0 -0 -0 -0 -0 -0 -0 -0 -0 -0 -3 -3 -17 -104 -235 -646 -167 -10 -5 -11 -26
-26 -70 -81 -11 -46 -53 -17 -12 -1 -2 -0 -0 -0 -1 -2 -0 -1 -1 -0 -0 -0 -0 -0 -0 -0 -0 -0 -0 -0 -0 -0 -0 -0 -0 -16 -5 -4 -152 -279 -236 -31 -13 -6 -9 -37
-3 -64 -1 -6 -84 -1 -32 -1 -1 -1 -0 -0 -0 -4 -2 -2 -34 -0 -2 -0 -41 -0 -0 -0 -0 -0 -0 -0 -0 -0 -0 -0 -1 -0 -0 -0 -0 -12 -317 -2 -2 -13 -9 -21 -27
-0 -0 -57 -17 -1 -8 -4 -1 -2 -0 -1 -1 -1 -2 -9 -6 -92 -89 -7 -17 -3 -35 -0 -0 -0 -0 -0 -0 -0 -0 -0 -0 -0 -0 -0 -1 -13 -2 -5 -5 -5 -9 -28 -17 -27
Wind_Speed
13 14 14 14 13 13 13 13 13 14 15 16 18 18 18 18 21 10 12 5 2 7 11 17 18 21 15 15 5 14 3 4 5 5 9 11 9 7 11 15 2 13 15 23 22
14 14 14 14 14 14 14 14 14 14 14 16 17 17 17 17 12 17 7 6 1 4 12 16 19 12 12 2 8 10 4 9 12 9 9 13 7 11 4 15 13 16 22 24 23
14 14 14 15 15 15 15 15 14 14 15 16 17 17 15 16 10 6 6 3 2 5 14 15 20 21 20 10 16 12 8 15 12 4 9 8 5 22 11 6 11 19 19 20 21
15 15 14 14 15 15 15 15 15 16 16 16 16 17 14 8 5 7 9 6 4 7 14 16 18 20 11 4 2 6 0 5 7 1 8 16 3 7 11 9 15 20 18 18 18
15 15 15 14 15 15 16 15 16 16 17 17 15 14 10 10 14 9 8 7 9 10 15 14 18 15 7 2 3 11 6 5 0 3 2 6 14 9 20 11 19 20 18 17 16
13 13 14 14 16 16 17 16 16 17 17 16 14 11 8 13 3 6 6 7 12 13 15 15 16 10 11 4 3 5 1 7 9 10 6 7 4 10 1 8 17 19 19 19 19
14 13 14 15 17 18 18 17 18 17 17 14 9 8 12 17 1 4 8 11 13 14 15 16 17 9 10 4 2 7 8 7 10 9 9 7 5 14 19 28 12 16 15 17 22
15 13 14 16 18 18 19 19 20 17 14 9 5 9 10 12 13 9 10 11 12 12 16 15 7 14 17 3 3 11 13 12 11 4 8 4 5 16 17 23 17 15 14 13 13
14 14 14 15 17 18 20 22 20 14 10 5 7 10 17 3 11 14 14 12 13 13 13 8 4 15 16 6 11 11 14 4 10 10 6 9 11 23 32 23 12 4 13 13 12
13 14 15 15 16 17 23 24 7 10 8 10 11 11 13 13 11 15 15 13 13 14 13 10 10 16 16 12 13 10 10 8 13 9 6 11 11 26 22 18 16 25 18 16 14
15 14 15 15 15 15 16 5 6 7 12 13 15 14 9 8 8 13 14 11 14 15 16 16 14 15 19 19 10 13 9 18 18 13 7 10 13 6 14 26 10 9 7 17 18
14 16 15 16 16 14 10 8 10 10 10 25 22 19 6 6 10 14 15 14 17 18 18 15 18 19 20 17 4 7 4 10 3 2 5 10 9 11 5 19 10 13 12 18 20
14 15 16 17 19 11 12 16 11 12 9 16 24 19 13 11 14 17 18 19 16 19 20 20 19 21 21 5 3 13 11 7 8 10 12 12 9 9 23 22 20 9 11 15 14
15 15 15 18 10 11 12 14 12 12 8 15 26 22 17 13 17 17 20 18 13 19 20 18 18 19 18 10 10 14 14 5 3 9 10 12 9 1 15 24 16 15 28 17 9
15 15 13 5 15 8 8 5 6 7 8 16 23 11 16 17 13 19 21 20 18 16 15 17 18 15 20 13 13 16 4 5 10 13 15 16 8 6 12 11 5 10 3 20 40
15 14 12 9 8 16 15 4 7 8 12 10 10 20 22 17 23 18 19 19 16 16 17 21 14 18 18 11 14 16 11 7 10 12 14 10 10 9 15 21 9 10 20 8 7
16 14 9 11 7 7 10 8 8 12 16 18 20 21 22 20 19 19 21 22 18 15 16 17 20 16 19 16 14 16 14 9 12 13 9 15 7 15 23 19 18 16 4 12 9
18 14 11 13 7 12 8 10 12 16 25 14 17 20 24 21 21 19 20 19 22 19 13 15 15 17 11 15 15 16 18 12 7 6 12 19 9 8 3 5 5 4 3 14 13
25 7 8 8 15 8 9 14 10 13 16 10 19 20 23 22 18 15 20 21 20 22 18 15 17 15 16 14 18 16 14 18 21 21 16 9 6 26 16 2 3 6 4 6 15
7 8 7 13 14 8 10 18 19 19 12 5 10 16 20 23 23 21 21 21 21 23 21 16 11 17 18 16 13 18 14 11 12 17 13 8 8 4 10 3 3 2 7 9 15
7 8 8 13 10 8 11 18 21 15 6 7 13 7 18 20 22 20 17 15 22 22 20 20 15 9 17 16 16 12 16 18 15 12 12 2 4 10 17 6 4 2 5 4 19
8 5 9 10 8 9 13 21 13 5 7 13 16 17 18 20 23 19 18 20 19 20 22 19 10 11 17 12 17 20 17 20 9 13 12 11 3 6 11 2 4 4 9 9 14
6 3 8 11 8 11 17 22 8 13 8 11 17 17 12 13 17 19 15 16 10 15 15 15 10 11 15 19 14 18 18 19 15 17 14 10 5 3 3 25 9 8 9 8 13
7 0 5 8 11 17 12 20 12 11 15 13 12 14 14 16 15 14 19 10 11 7 9 11 16 14 10 13 14 19 16 19 20 15 15 16 13 11 13 13 33 8 7 11 11
5 3 11 7 13 17 14 21 14 15 13 12 10 12 13 12 12 11 18 15 11 8 5 10 16 17 19 18 17 13 19 18 18 16 19 17 12 13 10 11 12 2 10 10 11
4 5 9 7 12 21 11 12 10 15 13 14 12 15 17 16 11 7 13 11 12 14 13 14 15 15 19 18 19 18 14 13 19 18 18 19 21 11 21 21 7 7 6 7 10
10 10 9 9 13 11 6 8 15 15 14 13 6 11 13 13 3 17 15 8 7 16 15 15 13 14 15 16 19 16 17 17 18 15 16 18 16 12 8 2 6 5 7 6 11
Wind_Direction
357 355 353 350 348 344 340 337 334 331 326 322 324 322 321 319 306 225 252 264 6 338 323 289 268 265 255 254 309 141 336 104 245 355 134 110 123 73 133 115 141 85 143 142 150
355 354 352 349 345 342 338 335 331 326 322 319 317 317 319 323 288 262 236 138 123 9 287 290 310 317 261 239 69 67 18 222 164 179 143 138 171 118 177 122 108 84 108 134 157
352 352 350 347 343 340 336 333 328 323 318 314 315 315 320 314 272 231 124 135 150 266 267 279 290 282 279 218 135 160 219 253 91 90 80 111 120 109 74 119 125 130 140 151 159
348 347 346 345 341 338 334 330 325 319 314 310 313 315 320 278 251 91 151 165 200 261 255 266 271 262 285 236 197 131 7 54 96 117 167 118 185 55 121 56 111 132 146 156 160
344 343 340 338 338 333 331 327 320 314 309 307 309 314 297 228 255 131 165 162 196 224 242 256 263 273 246 104 172 208 136 139 216 182 300 181 124 105 3 116 111 126 146 161 170
339 339 334 335 334 330 328 323 316 308 302 301 303 307 246 250 64 157 221 194 229 212 241 246 264 329 302 176 304 359 144 199 163 190 205 242 125 69 241 292 120 140 167 173 174
335 333 334 332 329 326 322 316 312 305 298 291 287 270 263 242 280 236 223 231 221 234 239 236 265 256 275 164 192 260 226 220 182 195 250 162 6 57 345 294 140 170 182 176 177
332 332 330 329 327 321 317 313 309 300 292 278 262 253 260 217 246 223 242 237 241 232 239 251 251 280 281 167 230 252 242 224 202 192 236 219 84 65 254 254 172 188 172 176 178
329 327 328 326 321 317 315 310 302 292 282 236 231 232 259 148 218 232 228 225 204 215 229 286 268 253 250 251 221 207 237 233 211 214 224 229 137 176 218 240 174 299 176 176 179
327 326 325 321 321 319 316 294 276 298 220 220 257 262 245 231 197 203 210 221 200 208 211 227 229 237 243 211 222 234 231 188 239 179 231 268 252 183 223 262 153 199 180 168 174
325 323 319 317 318 321 324 298 207 198 234 223 172 228 141 207 143 191 195 215 201 205 210 208 224 224 232 221 239 229 187 196 242 164 218 254 250 200 131 242 196 202 130 158 179
323 320 318 314 310 311 290 250 29 336 291 221 253 239 282 164 194 208 186 202 201 206 211 195 224 231 245 248 153 276 207 246 119 304 220 278 278 304 308 230 198 196 185 179 189
319 318 315 313 312 281 236 256 302 316 267 250 211 235 210 233 234 197 191 207 197 213 209 227 204 236 247 228 241 248 254 24 251 230 248 243 246 39 324 301 312 223 245 207 189
316 316 316 321 286 306 238 233 244 271 273 238 191 217 219 209 231 202 193 205 202 211 223 223 233 209 244 215 216 241 226 208 296 279 267 203 260 253 244 262 257 353 19 343 213
312 311 309 319 314 267 16 313 207 241 263 191 175 191 201 200 161 197 185 215 233 213 216 221 236 206 230 202 217 253 157 300 269 263 285 259 245 190 254 278 97 74 189 205 242
305 300 309 249 222 254 315 252 245 230 244 140 134 190 194 201 236 173 186 220 232 237 228 244 205 240 219 212 230 245 276 242 257 251 250 354 28 164 240 220 159 193 231 189 96
298 286 262 293 245 214 240 239 210 238 248 150 164 177 188 195 207 175 187 200 212 220 220 223 244 214 238 209 212 237 249 257 246 229 37 19 44 218 277 185 177 188 102 128 101
301 294 224 225 275 277 219 220 243 205 244 149 170 193 206 191 215 173 190 202 215 221 209 216 214 239 214 230 229 212 237 247 250 279 200 213 249 261 181 57 57 47 175 126 140
309 207 230 215 230 235 224 220 214 239 230 229 169 189 200 197 208 179 208 213 205 224 239 195 227 212 216 212 233 239 216 252 276 289 292 147 200 41 295 47 122 116 168 186 148
296 246 170 130 196 214 233 244 242 301 321 318 189 184 195 205 204 189 195 213 218 212 240 255 227 212 185 219 233 251 257 224 237 267 276 35 54 342 239 214 256 0 333 159 143
244 235 115 149 185 224 232 239 242 254 305 294 295 230 214 201 194 202 210 218 210 205 226 254 270 238 204 195 217 210 248 260 281 273 285 347 271 250 245 175 192 246 42 12 139
268 278 147 168 202 221 232 244 272 268 228 263 289 288 247 213 193 233 208 207 191 223 196 231 259 244 201 206 210 247 222 243 238 253 269 294 123 296 304 310 329 58 52 85 124
266 145 167 197 222 216 228 252 255 257 265 228 263 272 308 220 197 208 197 224 157 215 205 209 237 257 249 197 205 218 246 240 247 272 282 295 320 270 20 20 72 78 98 115 126
279 328 166 217 259 291 271 240 214 243 289 292 275 289 275 274 179 193 239 204 133 224 13 212 232 243 250 238 205 206 223 250 238 239 258 266 183 93 59 65 298 43 112 140 142
253 203 284 200 210 234 244 282 235 219 212 237 275 277 254 266 182 189 223 146 158 169 237 236 234 253 261 279 288 252 210 224 255 262 275 290 297 115 100 267 250 70 115 139 154
278 219 314 336 327 269 250 269 266 228 197 222 228 226 255 253 6 228 205 182 184 177 214 215 241 250 244 264 269 270 271 246 228 225 250 266 275 290 180 216 132 97 119 150 160
1 329 303 285 271 310 219 251 257 250 235 236 298 303 298 54 49 314 306 347 229 187 189 224 223 233 247 238 255 252 257 260 270 266 238 239 257 243 273 275 95 89 137 165 164